Data,Hora,Valor
2021-01-01,00:00,1.94
2021-01-01,00:30,1.95
2021-01-01,01:00,1.95
2021-01-01,01:30,1.94
2021-01-01,02:00,1.94
2021-01-01,02:30,1.93
2021-01-01,03:00,1.92
2021-01-01,03:30,1.91
2021-01-01,04:00,1.9
2021-01-01,04:30,1.89
2021-01-01,05:00,1.88
2021-01-01,05:30,1.87
2021-01-01,06:00,1.86
2021-01-01,06:30,1.85
2021-01-01,07:00,1.85
2021-01-01,07:30,1.84
2021-01-01,08:00,1.83
2021-01-01,08:30,1.82
2021-01-01,09:00,1.81
2021-01-01,09:30,1.81
2021-01-01,10:00,1.8
2021-01-01,10:30,1.79
2021-01-01,11:00,1.79
2021-01-01,11:30,1.79
2021-01-01,12:00,1.78
2021-01-01,12:30,1.77
2021-01-01,13:00,1.77
2021-01-01,13:30,1.76
2021-01-01,14:00,1.76
2021-01-01,14:30,1.75
2021-01-01,15:00,1.75
2021-01-01,15:30,1.74
2021-01-01,16:00,1.73
2021-01-01,16:30,1.72
2021-01-01,17:00,1.7
2021-01-01,17:30,1.69
2021-01-01,18:00,1.68
2021-01-01,18:30,1.68
2021-01-01,19:00,1.7
2021-01-01,19:30,1.71
2021-01-01,20:00,1.72
2021-01-01,20:30,1.71
2021-01-01,21:00,1.71
2021-01-01,21:30,1.7
2021-01-01,22:00,1.69
2021-01-01,22:30,1.67
2021-01-01,23:00,1.65
2021-01-01,23:30,1.65
2021-01-02,00:00,1.65
2021-01-02,00:30,1.67
2021-01-02,01:00,1.68
2021-01-02,01:30,1.68
2021-01-02,02:00,1.67
2021-01-02,02:30,1.66
2021-01-02,03:00,1.64
2021-01-02,03:30,1.63
2021-01-02,04:00,1.63
2021-01-02,04:30,1.63
2021-01-02,05:00,1.65
2021-01-02,05:30,1.66
2021-01-02,06:00,1.65
2021-01-02,06:30,1.64
2021-01-02,07:00,1.63
2021-01-02,07:30,1.61
2021-01-02,08:00,1.61
2021-01-02,08:30,1.61
2021-01-02,09:00,1.62
2021-01-02,09:30,1.63
2021-01-02,10:00,1.63
2021-01-02,10:30,1.63
2021-01-02,11:00,1.62
2021-01-02,11:30,1.6
2021-01-02,12:00,1.59
2021-01-02,12:30,1.59
2021-01-02,13:00,1.59
2021-01-02,13:30,1.59
2021-01-02,14:00,1.6
2021-01-02,14:30,1.61
2021-01-02,15:00,1.61
2021-01-02,15:30,1.61
2021-01-02,16:00,1.6
2021-01-02,16:30,1.58
2021-01-02,17:00,1.57
2021-01-02,17:30,1.57
2021-01-02,18:00,1.57
2021-01-02,18:30,1.57
2021-01-02,19:00,1.57
2021-01-02,19:30,1.58
2021-01-02,20:00,1.58
2021-01-02,20:30,1.59
2021-01-02,21:00,1.59
2021-01-02,21:30,1.58
2021-01-02,22:00,1.58
2021-01-02,22:30,1.58
2021-01-02,23:00,1.57
2021-01-02,23:30,1.57
2021-01-03,00:00,1.56
2021-01-03,00:30,1.55
2021-01-03,01:00,1.54
2021-01-03,01:30,1.54
2021-01-03,02:00,1.54
2021-01-03,02:30,1.54
2021-01-03,03:00,1.54
2021-01-03,03:30,1.55
2021-01-03,04:00,1.55
2021-01-03,04:30,1.56
2021-01-03,05:00,1.56
2021-01-03,05:30,1.56
2021-01-03,06:00,1.56
2021-01-03,06:30,1.56
2021-01-03,07:00,1.56
2021-01-03,07:30,1.55
2021-01-03,08:00,1.55
2021-01-03,08:30,1.54
2021-01-03,09:00,1.54
2021-01-03,09:30,1.54
2021-01-03,10:00,1.53
2021-01-03,10:30,1.53
2021-01-03,11:00,1.52
2021-01-03,11:30,1.52
2021-01-03,12:00,1.52
2021-01-03,12:30,1.52
2021-01-03,13:00,1.52
2021-01-03,13:30,1.51
2021-01-03,14:00,1.51
2021-01-03,14:30,1.51
2021-01-03,15:00,1.51
2021-01-03,15:30,1.51
2021-01-03,16:00,1.51
2021-01-03,16:30,1.51
2021-01-03,17:00,1.51
2021-01-03,17:30,1.51
2021-01-03,18:00,1.51
2021-01-03,18:30,1.51
2021-01-03,19:00,1.51
2021-01-03,19:30,1.51
2021-01-03,20:00,1.51
2021-01-03,20:30,1.51
2021-01-03,21:00,1.5
2021-01-03,21:30,1.5
2021-01-03,22:00,1.5
2021-01-03,22:30,1.5
2021-01-03,23:00,1.5
2021-01-03,23:30,1.5
2021-01-04,00:00,1.5
2021-01-04,00:30,1.5
2021-01-04,01:00,1.5
2021-01-04,01:30,1.5
2021-01-04,02:00,1.5
2021-01-04,02:30,1.5
2021-01-04,03:00,1.5
2021-01-04,03:30,1.5
2021-01-04,04:00,1.49
2021-01-04,04:30,1.49
2021-01-04,05:00,1.49
2021-01-04,05:30,1.49
2021-01-04,06:00,1.49
2021-01-04,06:30,1.49
2021-01-04,07:00,1.49
2021-01-04,07:30,1.49
2021-01-04,08:00,1.49
2021-01-04,08:30,1.49
2021-01-04,09:00,1.49
2021-01-04,09:30,1.49
2021-01-04,10:00,1.49
2021-01-04,10:30,1.49
2021-01-04,11:00,1.48
2021-01-04,11:30,1.48
2021-01-04,12:00,1.48
2021-01-04,12:30,1.48
2021-01-04,13:00,1.48
2021-01-04,13:30,1.48
2021-01-04,14:00,1.48
2021-01-04,14:30,1.48
2021-01-04,15:00,1.48
2021-01-04,15:30,1.48
2021-01-04,16:00,1.48
2021-01-04,16:30,1.48
2021-01-04,17:00,1.48
2021-01-04,17:30,1.48
2021-01-04,18:00,1.48
2021-01-04,18:30,1.48
2021-01-04,19:00,1.48
2021-01-04,19:30,1.47
2021-01-04,20:00,1.47
2021-01-04,20:30,1.47
2021-01-04,21:00,1.47
2021-01-04,21:30,1.47
2021-01-04,22:00,1.47
2021-01-04,22:30,1.47
2021-01-04,23:00,1.47
2021-01-04,23:30,1.46
2021-01-05,00:00,1.46
2021-01-05,00:30,1.46
2021-01-05,01:00,1.45
2021-01-05,01:30,1.45
2021-01-05,02:00,1.44
2021-01-05,02:30,1.44
2021-01-05,03:00,1.45
2021-01-05,03:30,1.45
2021-01-05,04:00,1.45
2021-01-05,04:30,1.45
2021-01-05,05:00,1.45
2021-01-05,05:30,1.45
2021-01-05,06:00,1.45
2021-01-05,06:30,1.45
2021-01-05,07:00,1.45
2021-01-05,07:30,1.45
2021-01-05,08:00,1.45
2021-01-05,08:30,1.45
2021-01-05,09:00,1.44
2021-01-05,09:30,1.44
2021-01-05,10:00,1.44
2021-01-05,10:30,1.44
2021-01-05,11:00,1.44
2021-01-05,11:30,1.44
2021-01-05,12:00,1.44
2021-01-05,12:30,1.44
2021-01-05,13:00,1.44
2021-01-05,13:30,1.44
2021-01-05,14:00,1.44
2021-01-05,14:30,1.44
2021-01-05,15:00,1.44
2021-01-05,15:30,1.43
2021-01-05,16:00,1.43
2021-01-05,16:30,1.43
2021-01-05,17:00,1.43
2021-01-05,17:30,1.43
2021-01-05,18:00,1.43
2021-01-05,18:30,1.42
2021-01-05,19:00,1.42
2021-01-05,19:30,1.41
2021-01-05,20:00,1.41
2021-01-05,20:30,1.4
2021-01-05,21:00,1.39
2021-01-05,21:30,1.38
2021-01-05,22:00,1.38
2021-01-05,22:30,1.38
2021-01-05,23:00,1.39
2021-01-05,23:30,1.4
2021-01-06,00:00,1.41
2021-01-06,00:30,1.41
2021-01-06,01:00,1.42
2021-01-06,01:30,1.42
2021-01-06,02:00,1.42
2021-01-06,02:30,1.42
2021-01-06,03:00,1.42
2021-01-06,03:30,1.42
2021-01-06,04:00,1.42
2021-01-06,04:30,1.42
2021-01-06,05:00,1.42
2021-01-06,05:30,1.42
2021-01-06,06:00,1.41
2021-01-06,06:30,1.41
2021-01-06,07:00,1.41
2021-01-06,07:30,1.41
2021-01-06,08:00,1.41
2021-01-06,08:30,1.41
2021-01-06,09:00,1.4
2021-01-06,09:30,1.4
2021-01-06,10:00,1.39
2021-01-06,10:30,1.37
2021-01-06,11:00,1.37
2021-01-06,11:30,1.36
2021-01-06,12:00,1.36
2021-01-06,12:30,1.37
2021-01-06,13:00,1.38
2021-01-06,13:30,1.38
2021-01-06,14:00,1.38
2021-01-06,14:30,1.38
2021-01-06,15:00,1.38
2021-01-06,15:30,1.38
2021-01-06,16:00,1.39
2021-01-06,16:30,1.39
2021-01-06,17:00,1.39
2021-01-06,17:30,1.4
2021-01-06,18:00,1.39
2021-01-06,18:30,1.39
2021-01-06,19:00,1.39
2021-01-06,19:30,1.38
2021-01-06,20:00,1.37
2021-01-06,20:30,1.36
2021-01-06,21:00,1.35
2021-01-06,21:30,1.35
2021-01-06,22:00,1.35
2021-01-06,22:30,1.36
2021-01-06,23:00,1.37
2021-01-06,23:30,1.37
2021-01-07,00:00,1.37
2021-01-07,00:30,1.36
2021-01-07,01:00,1.35
2021-01-07,01:30,1.35
2021-01-07,02:00,1.35
2021-01-07,02:30,1.35
2021-01-07,03:00,1.35
2021-01-07,03:30,1.36
2021-01-07,04:00,1.37
2021-01-07,04:30,1.37
2021-01-07,05:00,1.37
2021-01-07,05:30,1.37
2021-01-07,06:00,1.37
2021-01-07,06:30,1.36
2021-01-07,07:00,1.35
2021-01-07,07:30,1.34
2021-01-07,08:00,1.33
2021-01-07,08:30,1.33
2021-01-07,09:00,1.33
2021-01-07,09:30,1.35
2021-01-07,10:00,1.35
2021-01-07,10:30,1.36
2021-01-07,11:00,1.36
2021-01-07,11:30,1.36
2021-01-07,12:00,1.36
2021-01-07,12:30,1.36
2021-01-07,13:00,1.36
2021-01-07,13:30,1.36
2021-01-07,14:00,1.36
2021-01-07,14:30,1.36
2021-01-07,15:00,1.35
2021-01-07,15:30,1.34
2021-01-07,16:00,1.33
2021-01-07,16:30,1.32
2021-01-07,17:00,1.31
2021-01-07,17:30,1.3
2021-01-07,18:00,1.29
2021-01-07,18:30,1.29
2021-01-07,19:00,1.3
2021-01-07,19:30,1.31
2021-01-07,20:00,1.32
2021-01-07,20:30,1.33
2021-01-07,21:00,1.35
2021-01-07,21:30,1.35
2021-01-07,22:00,1.35
2021-01-07,22:30,1.36
2021-01-07,23:00,1.35
2021-01-07,23:30,1.35
2021-01-08,00:00,1.35
2021-01-08,00:30,1.34
2021-01-08,01:00,1.34
2021-01-08,01:30,1.33
2021-01-08,02:00,1.32
2021-01-08,02:30,1.31
2021-01-08,03:00,1.3
2021-01-08,03:30,1.29
2021-01-08,04:00,1.28
2021-01-08,04:30,1.28
2021-01-08,05:00,1.28
2021-01-08,05:30,1.29
2021-01-08,06:00,1.31
2021-01-08,06:30,1.32
2021-01-08,07:00,1.33
2021-01-08,07:30,1.33
2021-01-08,08:00,1.34
2021-01-08,08:30,1.34
2021-01-08,09:00,1.34
2021-01-08,09:30,1.34
2021-01-08,10:00,1.34
2021-01-08,10:30,1.34
2021-01-08,11:00,1.33
2021-01-08,11:30,1.32
2021-01-08,12:00,1.31
2021-01-08,12:30,1.3
2021-01-08,13:00,1.3
2021-01-08,13:30,1.29
2021-01-08,14:00,1.29
2021-01-08,14:30,1.29
2021-01-08,15:00,1.29
2021-01-08,15:30,1.3
2021-01-08,16:00,1.3
2021-01-08,16:30,1.3
2021-01-08,17:00,1.3
2021-01-08,17:30,1.3
2021-01-08,18:00,1.31
2021-01-08,18:30,1.31
2021-01-08,19:00,1.31
2021-01-08,19:30,1.31
2021-01-08,20:00,1.3
2021-01-08,20:30,1.3
2021-01-08,21:00,1.29
2021-01-08,21:30,1.28
2021-01-08,22:00,1.27
2021-01-08,22:30,1.27
2021-01-08,23:00,1.27
2021-01-08,23:30,1.28
2021-01-09,00:00,1.28
2021-01-09,00:30,1.29
2021-01-09,01:00,1.29
2021-01-09,01:30,1.29
2021-01-09,02:00,1.29
2021-01-09,02:30,1.3
2021-01-09,03:00,1.3
2021-01-09,03:30,1.3
2021-01-09,04:00,1.3
2021-01-09,04:30,1.3
2021-01-09,05:00,1.3
2021-01-09,05:30,1.29
2021-01-09,06:00,1.28
2021-01-09,06:30,1.27
2021-01-09,07:00,1.26
2021-01-09,07:30,1.25
2021-01-09,08:00,1.24
2021-01-09,08:30,1.24
2021-01-09,09:00,1.24
2021-01-09,09:30,1.25
2021-01-09,10:00,1.26
2021-01-09,10:30,1.27
2021-01-09,11:00,1.27
2021-01-09,11:30,1.27
2021-01-09,12:00,1.26
2021-01-09,12:30,1.26
2021-01-09,13:00,1.27
2021-01-09,13:30,1.27
2021-01-09,14:00,1.27
2021-01-09,14:30,1.27
2021-01-09,15:00,1.27
2021-01-09,15:30,1.26
2021-01-09,16:00,1.25
2021-01-09,16:30,1.24
2021-01-09,17:00,1.23
2021-01-09,17:30,1.22
2021-01-09,18:00,1.22
2021-01-09,18:30,1.23
2021-01-09,19:00,1.25
2021-01-09,19:30,1.26
2021-01-09,20:00,1.28
2021-01-09,20:30,1.28
2021-01-09,21:00,1.28
2021-01-09,21:30,1.28
2021-01-09,22:00,1.27
2021-01-09,22:30,1.27
2021-01-09,23:00,1.27
2021-01-09,23:30,1.28
2021-01-10,00:00,1.28
2021-01-10,00:30,1.28
2021-01-10,01:00,1.28
2021-01-10,01:30,1.27
2021-01-10,02:00,1.26
2021-01-10,02:30,1.24
2021-01-10,03:00,1.23
2021-01-10,03:30,1.21
2021-01-10,04:00,1.21
2021-01-10,04:30,1.21
2021-01-10,05:00,1.22
2021-01-10,05:30,1.23
2021-01-10,06:00,1.25
2021-01-10,06:30,1.26
2021-01-10,07:00,1.27
2021-01-10,07:30,1.28
2021-01-10,08:00,1.28
2021-01-10,08:30,1.28
2021-01-10,09:00,1.28
2021-01-10,09:30,1.28
2021-01-10,10:00,1.28
2021-01-10,10:30,1.28
2021-01-10,11:00,1.27
2021-01-10,11:30,1.26
2021-01-10,12:00,1.24
2021-01-10,12:30,1.23
2021-01-10,13:00,1.21
2021-01-10,13:30,1.2
2021-01-10,14:00,1.19
2021-01-10,14:30,1.19
2021-01-10,15:00,1.19
2021-01-10,15:30,1.21
2021-01-10,16:00,1.22
2021-01-10,16:30,1.23
2021-01-10,17:00,1.24
2021-01-10,17:30,1.25
2021-01-10,18:00,1.26
2021-01-10,18:30,1.26
2021-01-10,19:00,1.26
2021-01-10,19:30,1.27
2021-01-10,20:00,1.26
2021-01-10,20:30,1.26
2021-01-10,21:00,1.25
2021-01-10,21:30,1.25
2021-01-10,22:00,1.23
2021-01-10,22:30,1.22
2021-01-10,23:00,1.2
2021-01-10,23:30,1.19
2021-01-11,00:00,1.18
2021-01-11,00:30,1.17
2021-01-11,01:00,1.18
2021-01-11,01:30,1.19
2021-01-11,02:00,1.2
2021-01-11,02:30,1.21
2021-01-11,03:00,1.22
2021-01-11,03:30,1.23
2021-01-11,04:00,1.24
2021-01-11,04:30,1.25
2021-01-11,05:00,1.25
2021-01-11,05:30,1.25
2021-01-11,06:00,1.24
2021-01-11,06:30,1.24
2021-01-11,07:00,1.24
2021-01-11,07:30,1.23
2021-01-11,08:00,1.22
2021-01-11,08:30,1.21
2021-01-11,09:00,1.19
2021-01-11,09:30,1.18
2021-01-11,10:00,1.17
2021-01-11,10:30,1.16
2021-01-11,11:00,1.17
2021-01-11,11:30,1.18
2021-01-11,12:00,1.19
2021-01-11,12:30,1.2
2021-01-11,13:00,1.2
2021-01-11,13:30,1.21
2021-01-11,14:00,1.21
2021-01-11,14:30,1.22
2021-01-11,15:00,1.22
2021-01-11,15:30,1.23
2021-01-11,16:00,1.23
2021-01-11,16:30,1.22
2021-01-11,17:00,1.22
2021-01-11,17:30,1.21
2021-01-11,18:00,1.21
2021-01-11,18:30,1.2
2021-01-11,19:00,1.19
2021-01-11,19:30,1.18
2021-01-11,20:00,1.17
2021-01-11,20:30,1.16
2021-01-11,21:00,1.16
2021-01-11,21:30,1.17
2021-01-11,22:00,1.18
2021-01-11,22:30,1.19
2021-01-11,23:00,1.2
2021-01-11,23:30,1.2
2021-01-12,00:00,1.2
2021-01-12,00:30,1.21
2021-01-12,01:00,1.21
2021-01-12,01:30,1.21
2021-01-12,02:00,1.21
2021-01-12,02:30,1.21
2021-01-12,03:00,1.2
2021-01-12,03:30,1.19
2021-01-12,04:00,1.18
2021-01-12,04:30,1.17
2021-01-12,05:00,1.16
2021-01-12,05:30,1.15
2021-01-12,06:00,1.14
2021-01-12,06:30,1.14
2021-01-12,07:00,1.14
2021-01-12,07:30,1.15
2021-01-12,08:00,1.17
2021-01-12,08:30,1.18
2021-01-12,09:00,1.19
2021-01-12,09:30,1.19
2021-01-12,10:00,1.19
2021-01-12,10:30,1.18
2021-01-12,11:00,1.17
2021-01-12,11:30,1.17
2021-01-12,12:00,1.16
2021-01-12,12:30,1.15
2021-01-12,13:00,1.15
2021-01-12,13:30,1.15
2021-01-12,14:00,1.15
2021-01-12,14:30,1.17
2021-01-12,15:00,1.18
2021-01-12,15:30,1.19
2021-01-12,16:00,1.19
2021-01-12,16:30,1.19
2021-01-12,17:00,1.19
2021-01-12,17:30,1.18
2021-01-12,18:00,1.18
2021-01-12,18:30,1.17
2021-01-12,19:00,1.16
2021-01-12,19:30,1.15
2021-01-12,20:00,1.15
2021-01-12,20:30,1.15
2021-01-12,21:00,1.15
2021-01-12,21:30,1.16
2021-01-12,22:00,1.17
2021-01-12,22:30,1.18
2021-01-12,23:00,1.18
2021-01-12,23:30,1.18
2021-01-13,00:00,1.18
2021-01-13,00:30,1.17
2021-01-13,01:00,1.16
2021-01-13,01:30,1.15
2021-01-13,02:00,1.14
2021-01-13,02:30,1.13
2021-01-13,03:00,1.12
2021-01-13,03:30,1.13
2021-01-13,04:00,1.14
2021-01-13,04:30,1.15
2021-01-13,05:00,1.17
2021-01-13,05:30,1.18
2021-01-13,06:00,1.19
2021-01-13,06:30,1.19
2021-01-13,07:00,1.19
2021-01-13,07:30,1.18
2021-01-13,08:00,1.17
2021-01-13,08:30,1.15
2021-01-13,09:00,1.14
2021-01-13,09:30,1.12
2021-01-13,10:00,1.11
2021-01-13,10:30,1.11
2021-01-13,11:00,1.11
2021-01-13,11:30,1.12
2021-01-13,12:00,1.14
2021-01-13,12:30,1.15
2021-01-13,13:00,1.16
2021-01-13,13:30,1.17
2021-01-13,14:00,1.17
2021-01-13,14:30,1.16
2021-01-13,15:00,1.15
2021-01-13,15:30,1.14
2021-01-13,16:00,1.13
2021-01-13,16:30,1.12
2021-01-13,17:00,1.12
2021-01-13,17:30,1.13
2021-01-13,18:00,1.14
2021-01-13,18:30,1.15
2021-01-13,19:00,1.16
2021-01-13,19:30,1.16
2021-01-13,20:00,1.16
2021-01-13,20:30,1.16
2021-01-13,21:00,1.15
2021-01-13,21:30,1.14
2021-01-13,22:00,1.13
2021-01-13,22:30,1.12
2021-01-13,23:00,1.12
2021-01-13,23:30,1.13
2021-01-14,00:00,1.14
2021-01-14,00:30,1.15
2021-01-14,01:00,1.15
2021-01-14,01:30,1.15
2021-01-14,02:00,1.14
2021-01-14,02:30,1.13
2021-01-14,03:00,1.12
2021-01-14,03:30,1.1
2021-01-14,04:00,1.1
2021-01-14,04:30,1.1
2021-01-14,05:00,1.11
2021-01-14,05:30,1.12
2021-01-14,06:00,1.14
2021-01-14,06:30,1.14
2021-01-14,07:00,1.14
2021-01-14,07:30,1.13
2021-01-14,08:00,1.12
2021-01-14,08:30,1.1
2021-01-14,09:00,1.09
2021-01-14,09:30,1.09
2021-01-14,10:00,1.09
2021-01-14,10:30,1.1
2021-01-14,11:00,1.11
2021-01-14,11:30,1.11
2021-01-14,12:00,1.12
2021-01-14,12:30,1.12
2021-01-14,13:00,1.12
2021-01-14,13:30,1.11
2021-01-14,14:00,1.11
2021-01-14,14:30,1.1
2021-01-14,15:00,1.11
2021-01-14,15:30,1.12
2021-01-14,16:00,1.13
2021-01-14,16:30,1.14
2021-01-14,17:00,1.15
2021-01-14,17:30,1.14
2021-01-14,18:00,1.14
2021-01-14,18:30,1.14
2021-01-14,19:00,1.13
2021-01-14,19:30,1.13
2021-01-14,20:00,1.13
2021-01-14,20:30,1.14
2021-01-14,21:00,1.15
2021-01-14,21:30,1.16
2021-01-14,22:00,1.17
2021-01-14,22:30,1.17
2021-01-14,23:00,1.16
2021-01-14,23:30,1.16
2021-01-15,00:00,1.15
2021-01-15,00:30,1.14
2021-01-15,01:00,1.12
2021-01-15,01:30,1.11
2021-01-15,02:00,1.09
2021-01-15,02:30,1.09
2021-01-15,03:00,1.09
2021-01-15,03:30,1.1
2021-01-15,04:00,1.12
2021-01-15,04:30,1.14
2021-01-15,05:00,1.15
2021-01-15,05:30,1.15
2021-01-15,06:00,1.14
2021-01-15,06:30,1.13
2021-01-15,07:00,1.12
2021-01-15,07:30,1.1
2021-01-15,08:00,1.09
2021-01-15,08:30,1.08
2021-01-15,09:00,1.08
2021-01-15,09:30,1.09
2021-01-15,10:00,1.09
2021-01-15,10:30,1.1
2021-01-15,11:00,1.1
2021-01-15,11:30,1.09
2021-01-15,12:00,1.09
2021-01-15,12:30,1.08
2021-01-15,13:00,1.07
2021-01-15,13:30,1.07
2021-01-15,14:00,1.07
2021-01-15,14:30,1.07
2021-01-15,15:00,1.08
2021-01-15,15:30,1.1
2021-01-15,16:00,1.11
2021-01-15,16:30,1.13
2021-01-15,17:00,1.13
2021-01-15,17:30,1.13
2021-01-15,18:00,1.12
2021-01-15,18:30,1.11
2021-01-15,19:00,1.1
2021-01-15,19:30,1.09
2021-01-15,20:00,1.09
2021-01-15,20:30,1.09
2021-01-15,21:00,1.09
2021-01-15,21:30,1.1
2021-01-15,22:00,1.12
2021-01-15,22:30,1.13
2021-01-15,23:00,1.13
2021-01-15,23:30,1.13
2021-01-16,00:00,1.12
2021-01-16,00:30,1.11
2021-01-16,01:00,1.1
2021-01-16,01:30,1.09
2021-01-16,02:00,1.07
2021-01-16,02:30,1.06
2021-01-16,03:00,1.06
2021-01-16,03:30,1.07
2021-01-16,04:00,1.09
2021-01-16,04:30,1.1
2021-01-16,05:00,1.11
2021-01-16,05:30,1.11
2021-01-16,06:00,1.11
2021-01-16,06:30,1.11
2021-01-16,07:00,1.1
2021-01-16,07:30,1.09
2021-01-16,08:00,1.08
2021-01-16,08:30,1.07
2021-01-16,09:00,1.06
2021-01-16,09:30,1.07
2021-01-16,10:00,1.09
2021-01-16,10:30,1.1
2021-01-16,11:00,1.1
2021-01-16,11:30,1.11
2021-01-16,12:00,1.11
2021-01-16,12:30,1.11
2021-01-16,13:00,1.1
2021-01-16,13:30,1.09
2021-01-16,14:00,1.08
2021-01-16,14:30,1.07
2021-01-16,15:00,1.07
2021-01-16,15:30,1.07
2021-01-16,16:00,1.09
2021-01-16,16:30,1.09
2021-01-16,17:00,1.1
2021-01-16,17:30,1.11
2021-01-16,18:00,1.11
2021-01-16,18:30,1.11
2021-01-16,19:00,1.1
2021-01-16,19:30,1.09
2021-01-16,20:00,1.08
2021-01-16,20:30,1.08
2021-01-16,21:00,1.08
2021-01-16,21:30,1.09
2021-01-16,22:00,1.1
2021-01-16,22:30,1.11
2021-01-16,23:00,1.11
2021-01-16,23:30,1.11
2021-01-17,00:00,1.1
2021-01-17,00:30,1.09
2021-01-17,01:00,1.08
2021-01-17,01:30,1.07
2021-01-17,02:00,1.06
2021-01-17,02:30,1.04
2021-01-17,03:00,1.04
2021-01-17,03:30,1.05
2021-01-17,04:00,1.06
2021-01-17,04:30,1.08
2021-01-17,05:00,1.09
2021-01-17,05:30,1.09
2021-01-17,06:00,1.1
2021-01-17,06:30,1.09
2021-01-17,07:00,1.09
2021-01-17,07:30,1.07
2021-01-17,08:00,1.06
2021-01-17,08:30,1.05
2021-01-17,09:00,1.05
2021-01-17,09:30,1.05
2021-01-17,10:00,1.06
2021-01-17,10:30,1.08
2021-01-17,11:00,1.08
2021-01-17,11:30,1.09
2021-01-17,12:00,1.08
2021-01-17,12:30,1.08
2021-01-17,13:00,1.07
2021-01-17,13:30,1.07
2021-01-17,14:00,1.06
2021-01-17,14:30,1.05
2021-01-17,15:00,1.05
2021-01-17,15:30,1.06
2021-01-17,16:00,1.07
2021-01-17,16:30,1.08
2021-01-17,17:00,1.09
2021-01-17,17:30,1.09
2021-01-17,18:00,1.09
2021-01-17,18:30,1.09
2021-01-17,19:00,1.09
2021-01-17,19:30,1.08
2021-01-17,20:00,1.07
2021-01-17,20:30,1.06
2021-01-17,21:00,1.06
2021-01-17,21:30,1.06
2021-01-17,22:00,1.07
2021-01-17,22:30,1.08
2021-01-17,23:00,1.09
2021-01-17,23:30,1.09
2021-01-18,00:00,1.08
2021-01-18,00:30,1.07
2021-01-18,01:00,1.06
2021-01-18,01:30,1.05
2021-01-18,02:00,1.04
2021-01-18,02:30,1.03
2021-01-18,03:00,1.03
2021-01-18,03:30,1.04
2021-01-18,04:00,1.06
2021-01-18,04:30,1.08
2021-01-18,05:00,1.09
2021-01-18,05:30,1.1
2021-01-18,06:00,1.09
2021-01-18,06:30,1.09
2021-01-18,07:00,1.07
2021-01-18,07:30,1.06
2021-01-18,08:00,1.04
2021-01-18,08:30,1.03
2021-01-18,09:00,1.02
2021-01-18,09:30,1.03
2021-01-18,10:00,1.04
2021-01-18,10:30,1.04
2021-01-18,11:00,1.05
2021-01-18,11:30,1.05
2021-01-18,12:00,1.04
2021-01-18,12:30,1.03
2021-01-18,13:00,1.02
2021-01-18,13:30,1.02
2021-01-18,14:00,1.01
2021-01-18,14:30,1.02
2021-01-18,15:00,1.04
2021-01-18,15:30,1.06
2021-01-18,16:00,1.08
2021-01-18,16:30,1.09
2021-01-18,17:00,1.09
2021-01-18,17:30,1.08
2021-01-18,18:00,1.07
2021-01-18,18:30,1.05
2021-01-18,19:00,1.04
2021-01-18,19:30,1.03
2021-01-18,20:00,1.03
2021-01-18,20:30,1.04
2021-01-18,21:00,1.06
2021-01-18,21:30,1.08
2021-01-18,22:00,1.09
2021-01-18,22:30,1.09
2021-01-18,23:00,1.09
2021-01-18,23:30,1.08
2021-01-19,00:00,1.07
2021-01-19,00:30,1.05
2021-01-19,01:00,1.04
2021-01-19,01:30,1.03
2021-01-19,02:00,1.02
2021-01-19,02:30,1.02
2021-01-19,03:00,1.03
2021-01-19,03:30,1.05
2021-01-19,04:00,1.07
2021-01-19,04:30,1.07
2021-01-19,05:00,1.07
2021-01-19,05:30,1.07
2021-01-19,06:00,1.06
2021-01-19,06:30,1.04
2021-01-19,07:00,1.03
2021-01-19,07:30,1.02
2021-01-19,08:00,1.0
2021-01-19,08:30,0.99
2021-01-19,09:00,0.99
2021-01-19,09:30,1.0
2021-01-19,10:00,1.01
2021-01-19,10:30,1.02
2021-01-19,11:00,1.03
2021-01-19,11:30,1.03
2021-01-19,12:00,1.02
2021-01-19,12:30,1.02
2021-01-19,13:00,1.01
2021-01-19,13:30,1.0
2021-01-19,14:00,1.0
2021-01-19,14:30,1.01
2021-01-19,15:00,1.02
2021-01-19,15:30,1.03
2021-01-19,16:00,1.04
2021-01-19,16:30,1.04
2021-01-19,17:00,1.03
2021-01-19,17:30,1.03
2021-01-19,18:00,1.02
2021-01-19,18:30,1.02
2021-01-19,19:00,1.02
2021-01-19,19:30,1.03
2021-01-19,20:00,1.05
2021-01-19,20:30,1.06
2021-01-19,21:00,1.06
2021-01-19,21:30,1.06
2021-01-19,22:00,1.05
2021-01-19,22:30,1.04
2021-01-19,23:00,1.03
2021-01-19,23:30,1.02
2021-01-20,00:00,1.01
2021-01-20,00:30,1.01
2021-01-20,01:00,1.02
2021-01-20,01:30,1.03
2021-01-20,02:00,1.04
2021-01-20,02:30,1.04
2021-01-20,03:00,1.03
2021-01-20,03:30,1.03
2021-01-20,04:00,1.03
2021-01-20,04:30,1.03
2021-01-20,05:00,1.03
2021-01-20,05:30,1.04
2021-01-20,06:00,1.05
2021-01-20,06:30,1.07
2021-01-20,07:00,1.07
2021-01-20,07:30,1.07
2021-01-20,08:00,1.07
2021-01-20,08:30,1.06
2021-01-20,09:00,1.05
2021-01-20,09:30,1.05
2021-01-20,10:00,1.05
2021-01-20,10:30,1.06
2021-01-20,11:00,1.08
2021-01-20,11:30,1.09
2021-01-20,12:00,1.1
2021-01-20,12:30,1.11
2021-01-20,13:00,1.12
2021-01-20,13:30,1.13
2021-01-20,14:00,1.15
2021-01-20,14:30,1.16
2021-01-20,15:00,1.18
2021-01-20,15:30,1.19
2021-01-20,16:00,1.22
2021-01-20,16:30,1.25
2021-01-20,17:00,1.29
2021-01-20,17:30,1.34
2021-01-20,18:00,1.39
2021-01-20,18:30,1.44
2021-01-20,19:00,1.47
2021-01-20,19:30,1.51
2021-01-20,20:00,1.59
2021-01-20,20:30,1.69
2021-01-20,21:30,1.86
2021-01-20,22:00,2.0
2021-01-20,22:30,2.15
2021-01-20,23:00,2.31
2021-01-20,23:30,2.42
2021-01-21,00:00,2.49
2021-01-21,00:30,2.51
2021-01-21,01:00,2.5
2021-01-21,01:30,2.48
2021-01-21,02:00,2.45
2021-01-21,02:30,2.44
2021-01-21,03:00,2.47
2021-01-21,03:30,2.52
2021-01-21,04:00,2.56
2021-01-21,04:30,2.57
2021-01-21,05:00,2.57
2021-01-21,05:30,2.55
2021-01-21,06:00,2.52
2021-01-21,06:30,2.49
2021-01-21,07:00,2.46
2021-01-21,07:30,2.44
2021-01-21,08:00,2.42
2021-01-21,08:30,2.39
2021-01-21,09:00,2.37
2021-01-21,09:30,2.35
2021-01-21,10:00,2.32
2021-01-21,10:30,2.3
2021-01-21,11:00,2.28
2021-01-21,11:30,2.27
2021-01-21,12:00,2.26
2021-01-21,12:30,2.25
2021-01-21,13:00,2.25
2021-01-21,13:30,2.25
2021-01-21,14:00,2.26
2021-01-21,14:30,2.25
2021-01-21,15:00,2.25
2021-01-21,15:30,2.25
2021-01-21,16:00,2.27
2021-01-21,16:30,2.38
2021-01-21,17:00,2.65
2021-01-21,17:30,2.96
2021-01-21,18:00,3.26
2021-01-21,18:30,3.52
2021-01-21,19:00,3.76
2021-01-21,19:30,3.97
2021-01-21,20:00,4.12
2021-01-21,20:30,4.22
2021-01-21,21:00,4.26
2021-01-21,21:30,4.25
2021-01-21,22:00,4.19
2021-01-21,22:30,4.11
2021-01-21,23:00,4.01
2021-01-21,23:30,3.89
2021-01-22,00:00,3.76
2021-01-22,00:30,3.64
2021-01-22,01:00,3.51
2021-01-22,01:30,3.4
2021-01-22,02:00,3.29
2021-01-22,02:30,3.19
2021-01-22,03:00,3.12
2021-01-22,03:30,3.06
2021-01-22,04:00,3.01
2021-01-22,04:30,2.98
2021-01-22,05:00,2.99
2021-01-22,05:30,3.05
2021-01-22,06:00,3.18
2021-01-22,06:30,3.36
2021-01-22,07:00,3.59
2021-01-22,07:30,3.79
2021-01-22,08:00,3.89
2021-01-22,08:30,3.92
2021-01-22,09:00,3.88
2021-01-22,09:30,3.81
2021-01-22,10:00,3.76
2021-01-22,10:30,3.74
2021-01-22,11:00,3.77
2021-01-22,11:30,3.84
2021-01-22,12:00,3.93
2021-01-22,12:30,4.0
2021-01-22,13:00,4.04
2021-01-22,13:30,4.08
2021-01-22,14:00,4.12
2021-01-22,14:30,4.17
2021-01-22,15:00,4.23
2021-01-22,15:30,4.27
2021-01-22,16:00,4.28
2021-01-22,16:30,4.27
2021-01-22,17:00,4.23
2021-01-22,17:30,4.15
2021-01-22,18:00,4.07
2021-01-22,18:30,3.97
2021-01-22,19:00,3.87
2021-01-22,19:30,3.78
2021-01-22,20:00,3.69
2021-01-22,20:30,3.6
2021-01-22,21:00,3.5
2021-01-22,21:30,3.41
2021-01-22,22:00,3.33
2021-01-22,22:30,3.24
2021-01-22,23:00,3.16
2021-01-22,23:30,3.09
2021-01-23,00:00,3.02
2021-01-23,00:30,2.97
2021-01-23,01:00,2.91
2021-01-23,01:30,2.86
2021-01-23,02:00,2.81
2021-01-23,02:30,2.77
2021-01-23,03:00,2.73
2021-01-23,03:30,2.68
2021-01-23,04:00,2.63
2021-01-23,04:30,2.6
2021-01-23,05:00,2.57
2021-01-23,05:30,2.54
2021-01-23,06:00,2.51
2021-01-23,06:30,2.48
2021-01-23,07:00,2.46
2021-01-23,07:30,2.43
2021-01-23,08:00,2.41
2021-01-23,08:30,2.39
2021-01-23,09:00,2.37
2021-01-23,09:30,2.36
2021-01-23,10:00,2.35
2021-01-23,10:30,2.34
2021-01-23,11:00,2.33
2021-01-23,11:30,2.31
2021-01-23,12:00,2.31
2021-01-23,12:30,2.31
2021-01-23,13:00,2.32
2021-01-23,13:30,2.34
2021-01-23,14:00,2.36
2021-01-23,14:30,2.42
2021-01-23,15:00,2.5
2021-01-23,15:30,2.67
2021-01-23,16:00,2.93
2021-01-23,16:30,3.25
2021-01-23,17:00,3.62
2021-01-23,17:30,4.01
2021-01-23,18:00,4.39
2021-01-23,18:30,4.81
2021-01-23,19:00,5.21